#timestamp,LO_Frequency,Hit,StdDev 
1692572415.8,286047000.8,N
1692572435.6,286047000.9,N
1692572455.4,286047000.9,N
1692572475.3,286046998.1,N
1692572495.1,286047000.9,N
1692572515.8,286047000.9,N
1692572535.7,286047000.5,N
1692572555.5,286047000.5,N
1692572575.4,286047000.5,N
1692572595.2,286046999.9,N
1692572615.0,286047000.9,N
1692572615.9,286047000.9,N
1692572635.8,286047000.3,N
1692572655.6,286047000.6,N
1692572675.4,286047002.7,N
1692572695.3,286047000.9,N
1692572715.1,286047000.7,N
1692572735.9,286046998.5,N
1692572755.7,286047001.2,N
1692572775.5,286046998.1,N
1692572795.4,286047000.4,N
1692572815.2,286047000.8,N
1692572835.0,286047001.0,N
1692572835.9,286047001.0,N
1692572855.8,286047000.3,N
1692572875.6,286047001.0,N
1692572895.5,286047000.9,N
1692572915.3,286047000.3,N
1692572935.1,286046999.9,N
1692572955.9,286047001.0,N
1692572975.7,286047000.9,N
1692572995.5,286047001.1,N
1692573015.4,286046998.2,N
1692573035.2,286047000.7,N
1692573055.0,286047000.8,N
1692573056.0,286047000.8,N
1692573075.8,286047000.2,N
1692573095.6,286046999.8,N
1692573115.5,286047001.1,N
1692573135.3,286046999.9,N
1692573155.1,286047000.4,N
1692573175.9,286046999.7,N
1692573195.7,286047000.1,N
1692573215.5,286047000.0,N
1692573235.4,286047002.2,N
1692573255.6,286047002.1,N
1692573275.4,286046999.7,N
1692573295.2,286047002.4,N
1692573315.1,286047002.6,N
1692573316.0,286047002.6,N
1692573335.8,286047002.7,N
1692573355.7,286046999.7,N
1692573375.5,286046999.9,N
1692573395.3,286047000.6,N
1692573415.2,286047000.2,N
1692573435.0,286047000.5,N
1692573435.9,286047000.5,N
1692573455.8,286047000.9,N
1692573475.6,286047000.3,N
1692573495.4,286046999.7,N
1692573515.3,286046999.7,N
1692573535.1,286047000.1,N
1692573555.8,286047002.8,N
1692573575.7,286047002.4,N
1692573595.5,286047002.3,N
1692573615.4,286047002.5,N
1692573635.2,286047001.5,N
1692573655.0,286047002.7,N
1692573655.9,286047002.7,N
1692573675.8,286047002.6,N
1692573695.6,286047002.6,N
1692573715.4,286047001.6,N
1692573735.3,286047002.3,N
1692573755.1,286047002.6,N
1692573775.9,286047001.5,N
1692573795.7,286047002.3,N
1692573815.5,286047000.1,N
1692573835.4,286047002.4,N
1692573855.2,286047000.3,N
1692573875.0,286047000.3,N
1692573875.9,286047000.3,N
1692573895.8,286046999.8,N
1692573915.6,286047000.6,N
1692573935.5,286047002.4,N
1692573955.3,286046999.7,N
1692573975.1,286047002.8,N
1692573995.9,286047001.9,N
1692574015.7,286047002.8,N
1692574035.5,286047002.7,N
1692574055.4,286047002.3,N
1692574075.2,286047001.7,N
1692574095.1,286047002.6,N
1692574096.0,286047002.6,N
1692574115.8,286047002.5,N
1692574135.6,286047002.4,N
1692574155.5,286046999.7,N
1692574175.3,286047000.1,N
1692574195.2,286046999.7,N
1692574215.9,286047002.4,N
1692574235.7,286047002.8,N
1692574255.6,286046999.7,N
1692574275.4,286047002.7,N
1692574295.2,286046999.7,N
1692574315.1,286047000.0,N
1692574316.0,286047000.0,N
1692574335.8,286047000.1,N
1692574355.7,286047002.3,N
1692574375.5,286046999.8,N
1692574395.3,286047002.4,N
1692574415.2,286047002.0,N
1692574435.0,286047001.5,N
1692574435.9,286047001.5,N
1692574455.8,286047001.4,N
1692574475.6,286047001.5,N
1692574495.4,286047002.2,N
1692574515.3,286047002.2,N
1692574535.1,286047001.9,N
1692574555.9,286046999.7,N
1692574575.7,286046999.7,N
1692574595.5,286047002.5,N
1692574615.4,286047001.5,N
1692574635.2,286047002.5,N
1692574655.0,286047001.7,N
1692574655.9,286047001.7,N
1692574675.8,286047001.5,N
1692574695.6,286047001.9,N
1692574715.5,286047002.0,N
1692574735.3,286047002.1,N
1692574755.1,286047002.7,N
1692574775.9,286047001.1,N
1692574795.7,286047001.0,N
1692574815.6,286046998.7,N
1692574835.4,286047001.0,N
1692574855.2,286047001.1,N
1692574875.1,286047000.5,N
1692574876.0,286047000.5,N
1692574895.8,286047000.5,N
1692574915.6,286046999.7,N
1692574935.5,286046999.7,N
1692574955.3,286046999.7,N
1692574975.1,286047000.1,N
1692574995.9,286047002.8,N
1692575015.7,286047002.3,N
1692575035.6,286047002.3,N
1692575055.4,286047002.3,N
1692575075.2,286046999.7,N
1692575095.1,286047000.2,N
1692575096.0,286047000.2,N
1692575115.8,286047000.5,N
1692575135.6,286047000.7,N
1692575155.5,286046998.5,N
1692575175.3,286047000.7,N
1692575195.2,286047001.0,N
1692575215.9,286047000.8,N
1692575235.7,286046998.1,N
1692575255.6,286046998.6,N
1692575275.4,286046998.1,N
1692575295.2,286046999.3,N
1692575315.1,286046998.9,N
1692575316.0,286046998.9,N
1692575335.8,286046998.5,N
1692575355.7,286046999.5,N
1692575375.5,286046997.1,N
1692575395.3,286046996.7,N
1692575415.2,286046999.6,N
1692575435.0,286046997.2,N
1692575435.9,286046997.2,N
1692575455.8,286046996.5,N
1692575475.6,286046997.0,N
1692575495.4,286046997.3,N
1692575515.3,286046997.0,N
1692575535.1,286046996.6,N
1692575555.8,286046996.9,N
1692575575.7,286046996.7,N
1692575595.5,286046996.7,N
1692575615.3,286046997.1,N
1692575635.2,286046997.4,N
1692575655.0,286046997.3,N
1692575655.9,286046997.3,N
1692575675.8,286046997.3,N
1692575695.6,286046997.4,N
1692575715.4,286046996.7,N
1692575735.3,286046997.9,N
1692575755.1,286046994.9,Y
1692575775.9,286046998.2,P
1692575795.7,286046998.2,P
1692575815.5,286046998.5,P
1692575835.4,286046998.6,Y
1692575885.2,286046999.9,E
1692575895.1,286047000.0,N
1692575915.9,286047000.0,P
1692575935.7,286047000.9,P
1692575955.6,286047000.5,N
1692575975.4,286046998.1,Y
1692575995.2,286047000.7,P
